Snowfall_Accumulation
0.0 0.0 0.0 0.0 0.0 0.0 0.0 0.0 0.0 0.0 0.0 0.0 0.0 0.0 0.0 0.0 0.0 0.0 0.0 0.0 0.0 0.0 0.0 0.0 0.0 0.0 0.0 0.0 0.0 0.0 0.0 0.0 0.0 0.0 0.0 0.0 0.0 0.0 0.0 0.0 0.0 0.0 0.0
0.0 0.0 0.0 0.0 0.0 0.0 0.0 0.0 0.0 0.0 0.0 0.0 0.0 0.0 0.0 0.0 0.0 0.0 0.0 0.0 0.0 0.0 0.0 0.0 0.0 0.0 0.0 0.0 0.0 0.0 0.0 0.0 0.0 0.0 0.0 0.0 0.0 0.0 0.0 0.0 0.0 0.0 0.0
0.0 0.0 0.0 0.0 0.0 0.0 0.0 0.0 0.0 0.0 0.0 0.0 0.0 0.0 0.0 0.0 0.0 0.0 0.0 0.0 0.0 0.0 0.0 0.0 0.0 0.0 0.0 0.0 0.0 0.0 0.0 0.0 0.0 0.0 0.0 0.0 0.0 0.0 0.0 0.0 0.0 0.0 0.0
0.0 0.0 0.0 0.0 0.0 0.0 0.0 0.0 0.0 0.0 0.0 0.0 0.0 0.0 0.0 0.0 0.0 0.0 0.0 0.0 0.0 0.0 0.0 0.0 0.0 0.0 0.0 0.0 0.0 0.0 0.0 0.0 0.0 0.0 0.0 0.0 0.0 0.0 0.0 0.0 0.0 0.0 0.0
0.0 0.0 0.0 0.0 0.0 0.0 0.0 0.0 0.0 0.0 0.0 0.0 0.0 0.0 0.0 0.0 0.0 0.0 0.0 0.0 0.0 0.0 0.0 0.0 0.0 0.0 0.0 0.0 0.0 0.0 0.0 0.0 0.0 0.0 0.0 0.0 0.0 0.0 0.0 0.0 0.0 0.0 0.0
0.0 0.0 0.0 0.0 0.0 0.0 0.0 0.0 0.0 0.0 0.0 0.0 0.0 0.0 0.0 0.0 0.0 0.0 0.0 0.0 0.0 0.0 0.0 0.0 0.0 0.0 0.0 0.0 0.0 0.0 0.0 0.0 0.0 0.0 0.0 0.0 0.0 0.0 0.0 0.0 0.0 0.0 0.0
0.0 0.0 0.0 0.0 0.0 0.0 0.0 0.0 0.0 0.0 0.0 0.0 0.0 0.0 0.0 0.0 0.0 0.0 0.0 0.0 0.0 0.0 0.0 0.0 0.0 0.0 0.0 0.0 0.0 0.0 0.0 0.0 0.0 0.0 0.0 0.0 0.0 0.0 0.0 0.0 0.0 0.0 0.0
0.0 0.0 0.0 0.0 0.0 0.0 0.0 0.0 0.0 0.0 0.0 0.0 0.0 0.0 0.0 0.0 0.0 0.0 0.0 0.0 0.0 0.0 0.0 0.0 0.0 0.0 0.0 0.0 0.0 0.0 0.0 0.0 0.0 0.0 0.0 0.0 0.0 0.0 0.0 0.0 0.0 0.1 0.0
0.0 0.0 0.0 0.0 0.0 0.0 0.0 0.0 0.0 0.0 0.0 0.0 0.0 0.0 0.0 0.0 0.0 0.0 0.0 0.0 0.0 0.0 0.0 0.0 0.0 0.0 0.0 0.0 0.0 0.0 0.0 0.0 0.0 0.0 0.0 0.0 0.0 0.0 0.0 0.0 0.1 0.1 0.3
0.0 0.0 0.0 0.0 0.0 0.0 0.0 0.0 0.0 0.0 0.0 0.0 0.0 0.0 0.0 0.0 0.0 0.0 0.0 0.0 0.0 0.0 0.0 0.0 0.0 0.0 0.0 0.0 0.0 0.0 0.0 0.0 0.0 0.0 0.0 0.1 0.1 0.2 0.2 0.1 0.0 0.1 0.3
0.0 0.0 0.0 0.0 0.0 0.0 0.0 0.0 0.0 0.0 0.0 0.0 0.0 0.0 0.0 0.0 0.0 0.0 0.0 0.0 0.0 0.0 0.0 0.0 0.0 0.0 0.0 0.0 0.0 0.0 0.0 0.0 0.1 0.0 0.0 0.0 0.2 0.2 0.4 0.2 0.1 0.1 0.5
0.0 0.0 0.0 0.0 0.0 0.0 0.0 0.0 0.0 0.0 0.0 0.0 0.0 0.0 0.0 0.0 0.0 0.0 0.0 0.0 0.0 0.0 0.0 0.0 0.0 0.0 0.0 0.0 0.0 0.0 0.0 0.0 0.0 0.3 0.4 0.7 0.8 0.7 0.4 0.1 0.1 0.3 0.1
0.0 0.0 0.0 0.0 0.0 0.0 0.0 0.0 0.0 0.0 0.0 0.0 0.0 0.0 0.0 0.0 0.0 0.0 0.0 0.0 0.0 0.0 0.0 0.0 0.0 0.0 0.0 0.3 0.3 0.3 0.4 0.6 0.6 0.6 0.6 0.5 0.2 0.1 0.0 0.0 0.1 0.0 0.0
0.0 0.0 0.0 0.0 0.0 0.0 0.0 0.0 0.0 0.0 0.0 0.0 0.0 0.0 0.0 0.0 0.0 0.0 0.0 0.0 0.0 0.0 0.0 0.0 0.8 1.1 1.1 1.0 1.2 1.1 0.7 0.3 0.1 0.1 0.2 0.1 0.1 0.0 0.0 0.0 0.0 0.0 0.4
0.1 0.0 1.0 0.0 0.0 0.0 0.0 0.0 0.0 0.0 0.3 0.4 0.2 0.1 0.0 0.0 0.0 0.0 0.0 0.0 0.0 0.7 0.8 1.1 1.2 0.9 1.1 0.2 0.1 0.1 0.1 0.3 0.1 0.0 0.0 0.0 0.1 0.0 1.7 0.3 0.3 0.2 1.6
1.6 2.3 4.7 2.8 7.7 5.5 5.1 5.0 3.2 2.7 0.0 0.0 0.0 0.2 0.1 0.8 0.0 0.0 0.3 0.0 1.4 1.5 0.9 0.8 0.6 0.6 0.4 0.3 0.3 0.3 0.2 0.0 0.0 0.0 0.0 0.0 0.0 0.0 0.0 0.5 0.6 2.1 2.4
1.5 2.1 4.3 6.7 8.9 9.9 12.0 6.6 5.5 3.5 3.8 5.0 3.2 4.1 4.5 4.1 1.3 4.7 4.8 3.1 2.2 2.4 1.9 1.9 1.4 0.9 0.5 0.8 0.6 0.3 0.2 0.2 0.3 0.3 0.2 0.1 0.2 0.3 0.2 0.1 1.0 0.9 1.0
1.5 3.3 4.8 6.1 10.6 13.4 11.7 13.2 12.5 9.4 4.5 8.7 9.8 12.0 13.9 11.0 11.2 11.8 8.8 7.3 5.7 4.5 5.0 3.5 2.8 2.4 1.9 1.5 2.1 1.8 1.4 0.9 0.6 0.4 0.2 0.1 0.5 0.1 0.6 0.6 0.6 0.4 0.3
2.0 3.4 5.6 8.0 8.6 11.3 13.8 15.3 14.6 15.1 14.8 14.5 14.4 13.8 13.8 12.7 11.7 11.7 11.0 10.1 9.3 7.6 7.6 6.0 6.6 5.7 4.8 4.5 4.1 3.0 2.1 1.9 1.4 1.0 0.8 0.8 0.6 0.6 0.7 0.3 0.2 0.2 0.1
3.4 3.6 4.1 5.7 8.6 11.7 12.5 13.5 14.9 16.1 16.4 16.2 16.7 17.3 14.2 11.1 12.1 14.4 14.9 15.0 16.4 17.1 16.4 14.5 13.3 12.8 11.5 10.4 9.1 7.2 5.3 4.1 2.9 2.1 1.7 1.2 0.8 0.5 0.4 0.2 0.1 0.0 0.0
2.7 2.9 3.6 4.4 5.1 6.9 9.2 11.0 12.1 12.5 14.3 15.0 16.2 17.2 18.0 17.3 18.3 18.1 17.9 17.8 16.9 16.4 16.3 15.3 14.4 12.8 12.0 11.0 9.9 9.0 7.4 6.3 4.6 3.3 2.6 1.9 1.4 1.1 0.9 0.5 0.3 0.1 0.3
2.5 2.8 3.9 5.3 5.5 6.4 7.1 7.7 7.7 8.4 9.8 10.7 12.6 13.3 12.6 13.3 14.5 15.5 15.9 15.7 14.9 13.1 11.9 10.8 11.0 10.9 10.6 9.7 8.3 7.1 6.1 5.4 4.7 3.5 2.6 1.8 1.4 1.1 0.9 0.7 0.6 0.5 0.4
1.5 2.3 2.5 3.4 4.0 4.6 5.6 6.6 6.0 5.5 6.5 7.5 8.9 10.1 10.6 10.9 11.0 11.2 11.2 11.7 11.8 12.0 11.6 10.1 9.0 8.7 7.5 6.6 5.5 4.3 3.8 3.4 2.7 2.1 2.1 1.9 1.7 1.4 1.1 0.9 0.5 0.3 0.2
0.8 1.2 1.5 2.6 3.1 3.2 3.8 4.6 4.9 4.7 5.5 6.5 7.1 7.8 9.0 9.9 10.4 10.4 9.9 9.5 8.3 8.1 7.5 6.8 6.2 5.5 5.0 4.6 4.0 3.4 3.1 2.8 2.3 2.0 1.6 1.5 1.3 1.0 0.7 0.5 0.4 0.2 0.1
0.7 0.8 0.9 1.3 1.7 2.1 2.7 3.0 3.6 4.2 4.2 4.6 5.5 5.9 6.6 6.8 6.9 7.3 7.4 7.0 6.8 6.2 6.2 5.9 5.8 5.3 4.8 4.4 4.0 3.4 2.6 2.1 1.7 1.4 1.2 1.0 0.8 0.6 0.4 0.3 0.2 0.1 0.0
0.4 0.5 0.6 0.6 0.9 1.1 1.3 1.8 2.4 3.0 3.4 3.4 3.6 4.0 4.5 4.7 4.8 4.8 4.9 4.5 4.3 4.3 4.1 4.0 3.7 3.4 3.1 2.9 2.5 2.1 1.8 1.5 1.1 0.8 0.5 0.4 0.4 0.3 0.2 0.1 0.1 0.0 0.0